Change the Weather History Date:

Sunday, March 17, 2013

  Actual Average Record
Temperature  
Mean Temperature 38 °F -  
Max Temperature 42 °F 54 °F 80 °F (2012)
Min Temperature 34 °F 30 °F 23 °F (2001)
Degree Days  
Heating Degree Days 28    
Moisture  
Dew Point 30 °F    
Average Humidity 76    
Maximum Humidity 93    
Minimum Humidity 67    
Precipitation  
Precipitation 0.00 in - - ()
Sea Level Pressure  
Sea Level Pressure 29.85 in    
Wind  
Wind Speed 8 mph (ENE)    
Max Wind Speed 13 mph    
Max Gust Speed 21 mph    
Visibility 9 miles    
Events      
Averages and records for this station are not official NWS values.
T = Trace of Precipitation, MM = Missing Value Source: NWS Daily Summary

Daily Weather History Graph

Daily Weather History Graph

Search for Another Location

Airport or City:

Trip Planner

Search our weather history database for the weather conditions in past years. The results will help you decide how hot, cold, wet, or windy it might be!

Date:

Astronomy

Mar. 17, 2013 Rise Set
Actual Time 7:39 AM CDT 7:40 PM CDT
Civil Twilight 7:12 AM CDT 8:07 PM CDT
Nautical Twilight 6:42 AM CDT 8:37 PM CDT
Astronomical Twilight 6:11 AM CDT 9:08 PM CDT
Moon 10:58 AM CDT (3/17) 12:45 AM CDT (3/17)
Length of Visible Light 12h 54m
Length of Day
12h 01m
Waxing Crescent, 31% of the Moon is Illuminated
Mar 17
Waxing Crescent
Mar 19
First Quarter
Mar 27
Full
Apr 2
Last Quarter
Apr 10
New

Hourly Weather History & Observations

Time (CDT) Temp. Windchill Dew Point Humidity Pressure Visibility Wind Dir Wind Speed Gust Speed Precip Events Conditions
12:52 AM 35.1 °F 28.6 °F 26.1 °F 70% 30.02 in 10.0 mi NE 8.1 mph 18.4 mph N/A   Overcast
1:52 AM 34.0 °F 26.6 °F 26.1 °F 73% 30.01 in 10.0 mi NE 9.2 mph - N/A   Overcast
2:52 AM 34.0 °F 28.0 °F 26.1 °F 73% 29.99 in 10.0 mi NE 6.9 mph - N/A   Overcast
3:52 AM 34.0 °F 26.6 °F 26.1 °F 73% 29.96 in 10.0 mi ENE 9.2 mph 20.7 mph N/A   Overcast
4:52 AM 34.0 °F 26.0 °F 27.0 °F 75% 29.95 in 10.0 mi ENE 10.4 mph 18.4 mph N/A   Overcast
5:52 AM 34.0 °F 26.6 °F 27.0 °F 75% 29.94 in 10.0 mi ENE 9.2 mph - N/A   Overcast
6:52 AM 34.0 °F 27.2 °F 27.0 °F 75% 29.96 in 10.0 mi ENE 8.1 mph - N/A   Overcast
7:52 AM 34.0 °F 28.8 °F 27.0 °F 75% 29.98 in 10.0 mi NNE 5.8 mph - N/A   Overcast
8:52 AM 34.0 °F 26.6 °F 27.0 °F 75% 29.96 in 10.0 mi NE 9.2 mph - N/A   Overcast
9:52 AM 35.1 °F 27.9 °F 27.0 °F 72% 29.95 in 10.0 mi NE 9.2 mph - N/A   Overcast
10:39 AM 35.6 °F 29.2 °F 28.4 °F 75% 29.93 in 10.0 mi NE 8.1 mph - N/A   Overcast
10:52 AM 37.0 °F 30.4 °F 28.0 °F 70% 29.94 in 10.0 mi NNE 9.2 mph - N/A   Overcast
11:52 AM 37.9 °F 31.5 °F 28.9 °F 70% 29.92 in 10.0 mi ENE 9.2 mph - N/A   Overcast
12:52 PM 39.0 °F 35.7 °F 28.9 °F 67% 29.90 in 10.0 mi NNE 4.6 mph - N/A   Overcast
1:52 PM 39.9 °F 35.1 °F 30.0 °F 68% 29.85 in 10.0 mi ENE 6.9 mph - N/A   Overcast
2:52 PM 39.9 °F 35.1 °F 30.0 °F 68% 29.81 in 10.0 mi ENE 6.9 mph - N/A   Overcast
3:52 PM 41.0 °F 35.8 °F 30.9 °F 67% 29.77 in 10.0 mi East 8.1 mph - N/A   Overcast
4:52 PM 41.0 °F 34.7 °F 32.0 °F 70% 29.74 in 10.0 mi ENE 10.4 mph - N/A   Overcast
5:52 PM 41.0 °F 34.7 °F 33.1 °F 73% 29.71 in 9.0 mi ESE 10.4 mph - N/A   Overcast
6:03 PM 41.0 °F 34.7 °F 33.8 °F 76% 29.70 in 9.0 mi East 10.4 mph - N/A   Overcast
6:52 PM 39.0 °F 31.8 °F 33.1 °F 79% 29.70 in 8.0 mi SE 11.5 mph - N/A   Overcast
7:52 PM 39.0 °F 32.3 °F 34.0 °F 82% 29.70 in 8.0 mi ESE 10.4 mph - N/A   Overcast
8:00 PM 39.2 °F 33.6 °F 33.8 °F 81% 29.70 in 9.0 mi ESE 8.1 mph - N/A   Overcast
8:52 PM 37.9 °F 33.5 °F 35.1 °F 89% 29.75 in 4.0 mi SE 5.8 mph - N/A   Overcast
9:41 PM 37.4 °F 29.3 °F 35.6 °F 93% 29.68 in 4.0 mi ESE 12.7 mph - N/A   Overcast
9:52 PM 37.9 °F 30.5 °F 35.1 °F 89% 29.69 in 4.0 mi SE 11.5 mph - N/A   Overcast
10:52 PM 37.9 °F 33.5 °F 36.0 °F 93% 29.75 in 4.0 mi SE 5.8 mph - N/A   Overcast
11:52 PM 37.9 °F 34.4 °F 35.1 °F 89% 29.78 in 4.0 mi NNE 4.6 mph - N/A   Overcast